User: anonymous   Login
Location: Blanot
(47.1713°N, 4.2340°E)
Time: 23:52:01
(UTC+00:00)
Language:

Cosmos 1459 Rocket - Orbit

View from above orbital plane
View from above orbital plane
View from above satellite
View from above satellite

Ground track
Ground track

The orbit data is extracted from the following two-line orbital elements,

1 14059U 83042B   20275.42488369 +.00000115 +00000-0 +96525-4 0  9994
2 14059 082.9696 249.4844 0043802 128.7633 231.7452 13.78700847881144
Epoch (UTC): 01 October 2020 10:11:49
Eccentricity: 0.0043802
inclination: 82.9696°
perigee height: 936 km
apogee height: 1000 km
right ascension of ascending node: 249.4844°
argument of perigee: 128.7633°
revolutions per day: 13.78700847
mean anomaly at epoch: 231.7452°
orbit number at epoch: 88114

The dashed part of the orbit path shows where the satellite is in the earth's shadow,  

DLR